Portage Des Sioux, MO

6:15 AM CST on February 11, 2016 (GMT -0600)
Saint Charles County Smartt

Weather History for KSET - September, 2013

Change the Weather History Date:

Monday, September 16, 2013

  Actual Average (KSTL) Record (KSTL)
Temperature  
Mean Temperature 65 °F 70 °F  
Max Temperature 73 °F 80 °F 98 °F (1954)
Min Temperature 57 °F 61 °F 44 °F (1966)
Degree Days  
Heating Degree Days 0 1  
Month to date heating degree days 5  
Since 1 July heating degree days 6  
Cooling Degree Days 0 6  
Month to date cooling degree days 141  
Year to date cooling degree days 1540  
Growing Degree Days 15 (Base 50)    
Moisture  
Dew Point 56 °F    
Average Humidity 77    
Maximum Humidity 94    
Minimum Humidity 48    
Precipitation  
Precipitation 0.00 in 0.10 in 2.78 in (1969)
Month to date precipitation 1.65  
Year to date precipitation 29.40  
Snow  
Snow 0.00 in 0.00 in 0.00 in (2013)
Month to date snowfall 0.0  
Since 1 July snowfall 0.0  
Since 1 September snowfall 0.0  
Snow Depth -    
Sea Level Pressure  
Sea Level Pressure 30.21 in    
Wind  
Wind Speed 9 mph (NE)    
Max Wind Speed 16 mph    
Max Gust Speed 21 mph    
Visibility 10 miles    
Events      
T = Trace of Precipitation, MM = Missing Value Source: NWS Daily Summary

Daily Weather History Graph

Daily Weather History Graph

Search for Another Location

Airport or City:

Trip Planner

Search our weather history database for the weather conditions in past years. The results will help you decide how hot, cold, wet, or windy it might be!

Date:

Astronomy

Sep. 16, 2013 Rise Set
Actual Time 6:44 AM CDT 7:07 PM CDT
Civil Twilight 6:17 AM CDT 7:34 PM CDT
Nautical Twilight 5:46 AM CDT 8:05 PM CDT
Astronomical Twilight 5:13 AM CDT 8:38 PM CDT
Moon 5:16 PM CDT (9/16) 3:31 AM CDT (9/16)
Length of Visible Light 13h 17m
Length of Day
12h 23m
Waxing Gibbous, 90% of the Moon is Illuminated
Sep 16
Waxing Gibbous
Sep 19
Full
Sep 26
Last Quarter
Oct 4
New
Oct 11
First Quarter

Hourly Weather History & Observations

Time (CDT) Temp. Dew Point Humidity Pressure Visibility Wind Dir Wind Speed Gust Speed Precip Events Conditions
12:54 AM 66.0 °F 63.0 °F 90% 30.12 in 10.0 mi NNE 5.8 mph - 0.00 in   Overcast
1:10 AM 64.4 °F 62.6 °F 94% 30.13 in 9.0 mi NNE 16.1 mph 20.7 mph N/A   Overcast
1:41 AM 64.4 °F 60.8 °F 88% 30.14 in 10.0 mi NNE 10.4 mph - N/A   Overcast
1:54 AM 63.0 °F 60.1 °F 90% 30.14 in 10.0 mi NNE 9.2 mph - N/A   Overcast
2:54 AM 62.1 °F 60.1 °F 93% 30.14 in 7.0 mi NNE 10.4 mph - N/A   Overcast
3:08 AM 62.6 °F 59.0 °F 88% 30.15 in 7.0 mi North 10.4 mph - N/A   Overcast
3:54 AM 62.1 °F 57.9 °F 86% 30.15 in 8.0 mi NE 6.9 mph - N/A   Overcast
4:17 AM 60.8 °F 57.2 °F 88% 30.17 in 8.0 mi NE 9.2 mph - N/A   Overcast
4:54 AM 61.0 °F 57.9 °F 90% 30.17 in 8.0 mi NE 10.4 mph - N/A   Overcast
5:54 AM 60.1 °F 55.9 °F 86% 30.20 in 10.0 mi North 9.2 mph - N/A   Overcast
6:54 AM 59.0 °F 55.0 °F 87% 30.21 in 10.0 mi NE 11.5 mph - N/A   Overcast
7:54 AM 60.1 °F 55.9 °F 86% 30.23 in 10.0 mi NE 9.2 mph - N/A   Overcast
8:54 AM 60.1 °F 57.0 °F 90% 30.25 in 10.0 mi NNE 4.6 mph - N/A   Overcast
9:54 AM 61.0 °F 57.0 °F 87% 30.27 in 9.0 mi ENE 6.9 mph - N/A   Overcast
10:22 AM 64.4 °F 57.2 °F 77% 30.28 in 10.0 mi ENE 4.6 mph - N/A   Overcast
10:54 AM 66.0 °F 57.0 °F 73% 30.27 in 10.0 mi East 6.9 mph - N/A   Overcast
11:54 AM 69.1 °F 55.0 °F 61% 30.27 in 10.0 mi East 10.4 mph 19.6 mph N/A   Mostly Cloudy
12:54 PM 71.1 °F 55.0 °F 57% 30.26 in 10.0 mi ENE 13.8 mph - N/A   Overcast
1:54 PM 73.0 °F 54.0 °F 51% 30.25 in 10.0 mi ENE 9.2 mph - N/A   Scattered Clouds
2:54 PM 73.0 °F 53.1 °F 49% 30.24 in 10.0 mi ENE 12.7 mph - N/A   Scattered Clouds
3:54 PM 73.9 °F 53.1 °F 48% 30.22 in 10.0 mi NE 8.1 mph - N/A   Scattered Clouds
4:54 PM 71.1 °F 54.0 °F 55% 30.21 in 10.0 mi NE 11.5 mph - N/A   Scattered Clouds
5:54 PM 69.1 °F 54.0 °F 58% 30.21 in 10.0 mi NE 11.5 mph - N/A   Clear
6:54 PM 64.9 °F 53.1 °F 65% 30.21 in 10.0 mi NE 8.1 mph - N/A   Clear
7:54 PM 64.0 °F 53.1 °F 67% 30.21 in 10.0 mi ENE 6.9 mph - N/A   Clear
8:54 PM 62.1 °F 54.0 °F 75% 30.22 in 10.0 mi ENE 8.1 mph - N/A   Clear
9:54 PM 60.1 °F 54.0 °F 80% 30.23 in 10.0 mi ENE 4.6 mph - N/A   Clear
10:54 PM 57.9 °F 53.1 °F 84% 30.24 in 10.0 mi East 6.9 mph - N/A   Clear
11:54 PM 57.0 °F 54.0 °F 89% 30.24 in 10.0 mi East 6.9 mph - N/A   Clear